Regional Weather Roundup
Issued by NWS Goodland, KS

Home | Current Version | Previous Version | Graphics & Text | Print | Product List | Glossary On
Versions: 1 2 3 4 5 6 7 8 9 10 11 12 13 14 15 16 17 18 19 20 21 22 23 24 25 26 27 28 29 30 31 32 33 34 35 36 37 38 39 40 41 42 43 44 45 46 47 48 49 50
569
ASUS43 KGLD 062308
RWRGLD

GOODLAND FORECAST AREA HOURLY WEATHER ROUNDUP
NATIONAL WEATHER SERVICE GOODLAND KS
400 PM MST SAT FEB 06 2016

...OFFICIAL OBSERVATIONS...

CITY           SKY/WX    TMP DP  RH WIND       PRES   REMARKS
GOODLAND KS    CLOUDY    40  24  53 SW15      30.10F
HILL CITY KS   CLOUDY    41  28  60 SW8       30.13S
IMPERIAL NEB   CLOUDY    37  27  67 W9        30.04F
MCCOOK NEB     CLOUDY    38  26  62 SW12      30.06F
AKRON CO       CLOUDY    38  24  57 SW14      30.06F
BURLINGTON CO  CLOUDY    37  26  64 SW13      30.11F
LIMON CO       CLOUDY    33  21  61 N6        30.13S
$$

...UNOFFICIAL OBSERVATIONS...

CITY           SKY/WX    TMP DP  RH WIND       PRES   REMARKS
COLBY KS       SUNNY     39  32  75 SW12      30.11F
GOVE KS          N/A     43  32  65 MISG        N/A
LENORA KS        N/A     38  32  79 MISG        N/A
NORTON KS      SUNNY     37  27  65 SW10      30.09F
SHARON SPRINGS   N/A     42  28  58 SW12        N/A
TRIBUNE KS     CLOUDY    48  23  37 SW10      30.15F
TRENTON NEB      N/A     38  32  79 MISG        N/A
KIT CARSON CO    N/A     43  25  48 MISG        N/A
YUMA CO          N/A     40  29  64 W7          N/A
$$




USA.gov is the U.S. government's official web portal to all federal, state and local government web resources and services.